Stations météo

réclame
Mon MeteoGroup
Girona/Costa Brava, Espagne (8184): Température de l'air & dewpoint: 19.09.2018 13:00:00 - 25.09.2018 13:00:00 (CEST)Girona/Costa Brava, Espagne (8184): Vitesse du vent: 19.09.2018 13:00:00 - 25.09.2018 13:00:00 (CEST)Girona/Costa Brava, Espagne (8184): Direction du vent: 19.09.2018 13:00:00 - 25.09.2018 13:00:00 (CEST)Girona/Costa Brava, Espagne (8184): reduced air pressure: 19.09.2018 13:00:00 - 25.09.2018 13:00:00 (CEST)Girona/Costa Brava, Espagne (8184): visibility: 19.09.2018 13:00:00 - 25.09.2018 13:00:00 (CEST)
Date & Time tt [°C] td [°C] ff [km/h] ff [knt] dd ppp [hPa] vv [km]
25.09.2018 13:00:00 24,2 9,1 16 9 NNE 1025,8 30
25.09.2018 12:00:00 23,9 8,1 15 8 NE 1025,9 -
25.09.2018 11:00:00 22,3 8,3 16 9 NE 1025,9 30
25.09.2018 10:00:00 20,6 7,6 15 8 NNE 1025,5 -
25.09.2018 09:00:00 16,0 9,5 8 4 N 1025,3 -
25.09.2018 08:00:00 15,9 8,6 5 3 N 1024,8 -
25.09.2018 07:00:00 16,0 8,3 13 7 NNE 1024,4 -
25.09.2018 06:00:00 16,4 8,8 9 5 NNE 1024,2 -
25.09.2018 05:00:00 17,0 8,5 8 4 NE 1023,8 -
25.09.2018 04:00:00 17,4 7,7 15 8 NE 1023,6 -
25.09.2018 03:00:00 17,5 7,5 15 8 NE 1023,8 -
25.09.2018 02:00:00 17,7 8,0 11 6 NE 1023,6 -
25.09.2018 01:00:00 17,8 8,2 13 7 NE 1023,6 -
25.09.2018 00:00:00 17,6 8,6 11 6 NE 1023,4 -
24.09.2018 23:00:00 18,7 9,2 13 7 NE 1023,0 -
24.09.2018 22:00:00 19,4 10,1 11 6 NE 1022,6 -
24.09.2018 21:00:00 19,7 11,4 16 9 NE 1022,0 -
24.09.2018 20:00:00 20,9 12,7 16 9 ENE 1021,2 30
24.09.2018 19:00:00 22,3 13,4 16 9 ENE 1020,2 -
24.09.2018 18:00:00 24,0 14,5 16 9 ENE 1019,6 -
24.09.2018 17:00:00 25,2 15,1 16 9 NE 1019,4 30
24.09.2018 16:00:00 26,0 15,7 18 10 NE 1019,4 -
24.09.2018 15:00:00 27,6 17,3 8 4 E 1019,5 -
24.09.2018 14:00:00 27,0 17,0 15 8 NE 1020,0 -
24.09.2018 13:00:00 26,0 17,6 11 6 ENE 1020,7 -
24.09.2018 12:00:00 27,4 18,6 11 6 NNE 1020,8 -
24.09.2018 11:00:00 26,1 18,8 9 5 NE 1021,0 30
24.09.2018 10:00:00 24,3 18,6 8 4 ENE 1020,9 -
24.09.2018 09:00:00 20,2 19,0 8 4 NNE 1020,9 -
24.09.2018 08:00:00 19,0 17,8 9 5 NNW 1020,3 28
24.09.2018 07:00:00 18,9 18,4 11 6 N 1019,8 -
24.09.2018 06:00:00 17,8 17,0 8 4 ENE 1019,5 -
24.09.2018 05:00:00 18,7 17,6 0 0 N 1019,5 -
24.09.2018 04:00:00 19,2 18,4 4 2 N 1019,5 -
24.09.2018 03:00:00 18,9 17,9 8 4 NE 1019,8 -
24.09.2018 02:00:00 20,0 18,8 2 1 E 1019,6 -
24.09.2018 01:00:00 20,5 19,0 0 0 N 1019,6 -
24.09.2018 00:00:00 21,4 19,6 4 2 W 1020,1 -
23.09.2018 23:00:00 22,2 19,7 8 4 W 1019,9 20
23.09.2018 22:00:00 22,9 19,7 4 2 W 1019,9 -
23.09.2018 21:00:00 24,0 19,7 4 2 W 1019,5 -
23.09.2018 20:00:00 25,2 19,7 9 5 SSW 1018,7 28
23.09.2018 19:00:00 27,6 21,0 13 7 SSW 1018,0 -
23.09.2018 18:00:00 29,4 22,1 16 9 S 1017,5 -
23.09.2018 17:00:00 30,6 22,0 15 8 S 1017,5 -
23.09.2018 16:00:00 31,2 20,9 13 7 S 1018,1 -
23.09.2018 15:00:00 31,6 20,2 15 8 S 1018,6 -
23.09.2018 14:00:00 31,4 19,1 15 8 S 1019,4 -
23.09.2018 13:00:00 30,7 20,1 13 7 SSW 1020,2 -
23.09.2018 12:00:00 28,9 19,9 9 5 S 1021,0 -
23.09.2018 11:00:00 26,5 20,0 4 2 S 1021,5 -
23.09.2018 10:00:00 23,5 19,9 5 3 SSW 1021,4 -
23.09.2018 09:00:00 20,5 19,2 0 0 N 1021,4 -
23.09.2018 08:00:00 17,8 17,3 0 0 N 1021,2 35
23.09.2018 07:00:00 17,6 17,1 0 0 N 1021,0 -
23.09.2018 06:00:00 18,0 17,7 4 2 W 1021,3 -
23.09.2018 05:00:00 18,2 17,7 0 0 N 1021,5 -
23.09.2018 04:00:00 18,8 18,3 0 0 N 1021,4 -
23.09.2018 03:00:00 18,8 18,1 2 1 NNE 1021,8 -
23.09.2018 02:00:00 19,4 18,4 0 0 N 1021,9 -
23.09.2018 01:00:00 19,7 18,7 0 0 N 1021,9 -
23.09.2018 00:00:00 20,2 19,0 0 0 N 1021,8 -
22.09.2018 23:00:00 20,9 19,2 0 0 N 1021,7 20
22.09.2018 22:00:00 22,1 19,2 0 0 N 1021,4 -
22.09.2018 21:00:00 22,9 19,9 5 3 S 1020,9 -
22.09.2018 20:00:00 24,1 20,7 8 4 SW 1020,1 30
22.09.2018 19:00:00 26,0 21,2 11 6 SSW 1019,6 -
22.09.2018 18:00:00 27,7 21,2 11 6 SSW 1019,4 -
22.09.2018 17:00:00 28,1 21,3 16 9 SSW 1019,3 27
22.09.2018 16:00:00 28,2 21,2 18 10 SSW 1019,6 -
22.09.2018 15:00:00 28,3 21,2 18 10 SSW 1020,1 -
22.09.2018 14:00:00 26,2 20,6 13 7 S 1020,8 22
22.09.2018 13:00:00 26,6 20,6 15 8 S 1020,8 -
22.09.2018 12:00:00 26,3 20,6 13 7 SSW 1021,3 -
22.09.2018 11:00:00 25,2 18,3 8 4 S 1021,4 28
22.09.2018 10:00:00 22,9 17,5 13 7 NNE 1021,4 -
22.09.2018 09:00:00 19,6 17,9 5 3 NNE 1021,3 -
22.09.2018 08:00:00 16,8 16,2 0 0 N 1020,9 11
22.09.2018 07:00:00 17,0 16,2 0 0 N 1020,4 -
22.09.2018 06:00:00 17,4 16,6 0 0 N 1020,0 -
22.09.2018 05:00:00 17,3 16,5 0 0 N 1019,9 -
22.09.2018 04:00:00 17,7 16,9 8 4 NNE 1020,0 -
22.09.2018 03:00:00 17,9 16,9 2 1 E 1020,2 -
22.09.2018 02:00:00 19,1 17,6 0 0 N 1020,1 15
22.09.2018 01:00:00 19,4 17,4 2 1 ENE 1019,9 -
22.09.2018 00:00:00 20,4 17,6 5 3 W 1019,7 -
21.09.2018 23:00:00 21,6 17,9 0 0 N 1019,5 15
21.09.2018 22:00:00 22,7 17,8 5 3 SSW 1019,1 -
21.09.2018 21:00:00 23,2 18,3 4 2 WSW 1018,5 -
21.09.2018 20:00:00 23,9 19,0 13 7 WSW 1017,7 25
21.09.2018 19:00:00 25,8 18,6 9 5 SW 1016,8 -
21.09.2018 18:00:00 28,1 17,9 13 7 SSW 1015,9 -
21.09.2018 17:00:00 29,5 17,9 16 9 SSW 1015,6 20
21.09.2018 16:00:00 30,1 18,1 18 10 SSW 1015,6 -
21.09.2018 15:00:00 30,8 18,3 18 10 SSW 1015,7 -
21.09.2018 14:00:00 32,1 18,3 5 3 NE 1015,5 30
21.09.2018 13:00:00 30,9 17,3 2 1 N 1015,9 -
21.09.2018 12:00:00 28,6 17,5 11 6 NNE 1016,4 -
21.09.2018 11:00:00 26,7 17,7 9 5 NNE 1016,5 25
21.09.2018 10:00:00 24,6 18,1 8 4 NE 1016,1 -
21.09.2018 09:00:00 20,6 17,9 4 2 N 1016,0 -
21.09.2018 08:00:00 16,3 15,3 0 0 N 1015,7 -
21.09.2018 07:00:00 15,9 14,9 0 0 N 1015,3 -
21.09.2018 06:00:00 16,0 14,9 2 1 NE 1015,0 -
21.09.2018 05:00:00 16,8 15,3 5 3 SW 1014,9 -
21.09.2018 04:00:00 17,6 15,8 4 2 S 1015,2 -
21.09.2018 03:00:00 18,1 15,7 5 3 W 1015,6 -
21.09.2018 02:00:00 18,3 16,1 9 5 W 1016,1 -
21.09.2018 01:00:00 19,4 16,8 0 0 N 1016,5 -
21.09.2018 00:00:00 20,1 17,3 0 0 N 1016,7 -
20.09.2018 23:00:00 20,9 17,5 0 0 N 1016,6 -
20.09.2018 22:00:00 21,6 17,2 0 0 N 1016,6 -
20.09.2018 21:00:00 23,6 17,1 5 3 SSE 1016,2 -
20.09.2018 20:00:00 25,5 16,8 8 4 S 1015,8 30
20.09.2018 19:00:00 27,9 15,6 16 9 S 1015,7 -
20.09.2018 18:00:00 29,6 16,0 21 11 SSW 1015,6 -
20.09.2018 17:00:00 30,8 15,8 18 10 S 1015,8 30
20.09.2018 16:00:00 31,8 16,5 21 11 SSW 1016,0 -
20.09.2018 15:00:00 32,6 16,3 9 5 S 1016,4 -
20.09.2018 14:00:00 32,4 13,5 5 3 S 1017,3 40
20.09.2018 13:00:00 31,1 15,0 2 1 NNW 1017,9 45
20.09.2018 12:00:00 28,9 17,2 4 2 SSW 1018,6 -
20.09.2018 11:00:00 25,9 19,5 4 2 S 1019,1 45
20.09.2018 10:00:00 22,3 18,8 0 0 N 1019,1 -
20.09.2018 09:00:00 19,3 17,9 0 0 N 1019,1 -
20.09.2018 08:00:00 16,0 15,7 0 0 N 1019,3 10
20.09.2018 07:00:00 15,8 15,3 0 0 N 1019,0 -
20.09.2018 06:00:00 16,1 15,6 0 0 N 1019,0 -
20.09.2018 05:00:00 16,3 15,8 0 0 N 1019,3 -
20.09.2018 04:00:00 17,3 16,7 0 0 N 1019,4 -
20.09.2018 03:00:00 17,8 17,3 4 2 WSW 1019,9 -
20.09.2018 02:00:00 17,9 17,1 0 0 N 1020,0 -
20.09.2018 01:00:00 18,0 17,4 4 2 NE 1020,3 -
20.09.2018 00:00:00 18,7 17,7 8 4 W 1020,3 -
19.09.2018 23:00:00 20,0 18,0 4 2 WSW 1020,3 25
19.09.2018 22:00:00 20,8 18,6 4 2 W 1020,1 -
19.09.2018 21:00:00 21,7 18,9 8 4 SW 1019,8 -
19.09.2018 20:00:00 23,1 19,3 8 4 SW 1019,4 28
19.09.2018 19:00:00 25,2 19,3 13 7 SW 1018,9 -
19.09.2018 18:00:00 27,0 19,9 16 9 SSW 1018,4 -
19.09.2018 17:00:00 27,9 20,1 15 8 S 1018,1 -
19.09.2018 16:00:00 30,1 19,1 8 4 NE 1018,1 -
19.09.2018 15:00:00 29,4 18,9 9 5 NE 1018,7 -
19.09.2018 14:00:00 28,3 19,2 11 6 NE 1019,2 -
19.09.2018 13:00:00 27,7 19,8 9 5 NE 1019,6 -

tt = Température de l'air
td = dewpoint
ff = Vitesse du vent
dd = Direction du vent
ppp = reduced air pressure
vv = visibility

stations d'obs. à proximité